Worland, WY

6:43 AM MDT on September 23, 2017 (GMT -0600)
Worland Municipal

Weather History for KWRL - July, 2013

Change the Weather History Date:

Friday, July 26, 2013

  Actual Average Record
Temperature  
Mean Temperature 77 °F 73 °F  
Max Temperature 92 °F 90 °F 102 °F (1988)
Min Temperature 61 °F 56 °F 50 °F (2005)
Degree Days  
Heating Degree Days 0 0  
Month to date heating degree days 0 10  
Since 1 June heating degree days 45 103  
Since 1 July heating degree days 0 10  
Cooling Degree Days 12 8  
Month to date cooling degree days 301 188  
Year to date cooling degree days 451 284  
Since 1 June cooling degree days 434 272  
Growing Degree Days 26 (Base 50)    
Moisture  
Dew Point 45 °F    
Average Humidity 42    
Maximum Humidity 69    
Minimum Humidity 15    
Precipitation  
Precipitation 0.00 in 0.02 in 0.19 in (1991)
Month to date precipitation 0.20 0.59  
Year to date precipitation 2.98 4.90  
Sea Level Pressure  
Sea Level Pressure 30.02 in    
Wind  
Wind Speed 6 mph (ENE)    
Max Wind Speed 16 mph    
Max Gust Speed 20 mph    
Visibility 10 miles    
Events Thunderstorm    
T = Trace of Precipitation, MM = Missing Value Source: NWS Daily Summary

Daily Weather History Graph

Daily Weather History Graph

Search for Another Location

Airport or City:

Trip Planner

Search our weather history database for the weather conditions in past years. The results will help you decide how hot, cold, wet, or windy it might be!

Date:

Astronomy

Jul. 26, 2013 Rise Set
Actual Time 5:53 AM MDT 8:42 PM MDT
Civil Twilight 5:20 AM MDT 9:15 PM MDT
Nautical Twilight 4:37 AM MDT 9:57 PM MDT
Astronomical Twilight 3:48 AM MDT 10:47 PM MDT
Moon 10:44 PM MDT (7/26) 10:45 AM MDT (7/26)
Length of Visible Light 15h 55m
Length of Day
14h 48m
Waning Gibbous, 79% of the Moon is Illuminated
Jul 26
Waning Gibbous
Jul 29
Last Quarter
Aug 6
New
Aug 14
First Quarter
Aug 20
Full

Hourly Weather History & Observations

Time (MDT) Temp. Dew Point Humidity Pressure Visibility Wind Dir Wind Speed Gust Speed Precip Events Conditions
12:00 AM 75.2 °F 44.6 °F 34% 30.18 in 10.0 mi SE 10.4 mph - N/A Thunderstorm Partly Cloudy
12:53 AM 72.0 °F 44.1 °F 37% 30.03 in 10.0 mi SE 11.5 mph - N/A   Clear
1:53 AM 69.1 °F 43.0 °F 39% 30.04 in 10.0 mi South 6.9 mph - N/A   Clear
2:53 AM 66.0 °F 43.0 °F 43% 30.04 in 10.0 mi SSE 6.9 mph - N/A   Clear
3:53 AM 64.0 °F 44.1 °F 48% 30.06 in 10.0 mi SSE 3.5 mph - N/A   Clear
4:53 AM 64.0 °F 46.9 °F 54% 30.04 in 10.0 mi SE 8.1 mph - N/A   Partly Cloudy
5:53 AM 61.0 °F 50.0 °F 67% 30.08 in 10.0 mi West 4.6 mph - N/A   Clear
6:53 AM 66.0 °F 46.9 °F 50% 30.08 in 10.0 mi Calm Calm - N/A   Clear
7:53 AM 66.9 °F 51.1 °F 57% 30.10 in 10.0 mi NNE 5.8 mph - N/A   Clear
8:53 AM 70.0 °F 52.0 °F 53% 30.11 in 10.0 mi NNE 5.8 mph - N/A   Clear
9:53 AM 73.0 °F 52.0 °F 48% 30.11 in 10.0 mi North 3.5 mph - N/A   Clear
10:53 AM 77.0 °F 51.1 °F 40% 30.09 in 10.0 mi Variable 4.6 mph - N/A   Clear
11:53 AM 80.1 °F 51.1 °F 36% 30.06 in 10.0 mi Calm Calm - N/A   Clear
12:53 PM 82.0 °F 46.0 °F 28% 30.04 in 10.0 mi Variable 3.5 mph - N/A   Clear
1:53 PM 86.0 °F 48.0 °F 27% 30.00 in 10.0 mi North 5.8 mph - N/A   Clear
2:53 PM 90.0 °F 43.0 °F 19% 29.98 in 10.0 mi North 9.2 mph - N/A   Clear
3:53 PM 90.0 °F 41.0 °F 18% 29.97 in 10.0 mi North 8.1 mph - N/A   Clear
4:53 PM 91.0 °F 37.0 °F 15% 29.94 in 10.0 mi North 8.1 mph - N/A   Clear
5:53 PM 89.1 °F 41.0 °F 19% 29.94 in 10.0 mi North 4.6 mph - N/A   Clear
6:53 PM 89.1 °F 42.1 °F 19% 29.92 in 10.0 mi NNE 4.6 mph - N/A   Clear
7:53 PM 86.0 °F 41.0 °F 20% 29.91 in 10.0 mi ENE 3.5 mph - N/A   Clear
8:53 PM 80.1 °F 42.1 °F 26% 29.91 in 10.0 mi NE 4.6 mph - N/A   Clear
9:53 PM 78.1 °F 41.0 °F 27% 29.94 in 10.0 mi East 9.2 mph - N/A   Clear
10:53 PM 78.1 °F 46.0 °F 32% 29.93 in 10.0 mi SE 9.2 mph - N/A   Clear
11:53 PM 75.0 °F 46.9 °F 37% 29.93 in 10.0 mi SSE 11.5 mph - N/A   Clear